Terug naar catalogus

NIMBUS 4

ActiefWeerSSO
NORAD 4362·PAYLOAD·🇺🇸 United States

Gelanceerd Apr 8, 1970 vanaf Vandenberg Space Force Base

Loading…

Volgende Passages (komende 24 uur)

TLE

VersSource: Space-Track

Epoch: Sep 14, 2026, 05:46 UTC

1 04362U 70025A   26257.24057897 -.00000020  00000-0  41406-4 0  9995
2 04362  99.9566 177.4727 0007884 135.9717  28.4112 13.44758869768819

Volg NIMBUS 4 in realtime met AllMySat

Download on the App Store